Stations météo

réclame
Mon MeteoGroup
Bournemouth Airport, Grande-Bretagne (3862): Température de l'air & dewpoint: 13.06.2018 15:00:00 - 19.06.2018 15:00:00 (BST)Bournemouth Airport, Grande-Bretagne (3862): Température de l'air -20cm & Température de l'air -100cm: 13.06.2018 15:00:00 - 19.06.2018 15:00:00 (BST)Bournemouth Airport, Grande-Bretagne (3862): Vitesse du vent & gusts: 13.06.2018 15:00:00 - 19.06.2018 15:00:00 (BST)Bournemouth Airport, Grande-Bretagne (3862): Direction du vent: 13.06.2018 15:00:00 - 19.06.2018 15:00:00 (BST)Bournemouth Airport, Grande-Bretagne (3862): reduced air pressure: 13.06.2018 15:00:00 - 19.06.2018 15:00:00 (BST)Bournemouth Airport, Grande-Bretagne (3862): visibility: 13.06.2018 15:00:00 - 19.06.2018 15:00:00 (BST)Bournemouth Airport, Grande-Bretagne (3862): Ensoleillement: 13.06.2018 15:00:00 - 19.06.2018 15:00:00 (BST)Bournemouth Airport, Grande-Bretagne (3862): Quantités de précipitations: 13.06.2018 15:00:00 - 19.06.2018 15:00:00 (BST)
Date & Time tt [°C] td [°C] tt -20cm [°C] tt -100cm [°C] ff [km/h] ff [knt] fx [km/h] fx [knt] dd ppp [hPa] vv [km] sd [min] rr [mm]
19.06.2018 15:00:00 22,8 16,0 - - 22 12 - - SW 1023,9 10 30 0,0
19.06.2018 14:00:00 21,4 15,7 - - 18 10 - - SW 1023,9 10 0 0,0
19.06.2018 13:00:00 21,8 16,9 - - 15 8 - - WSW 1024,1 10 0 0,0
19.06.2018 12:00:00 20,3 15,6 - - 16 9 - - WSW 1024,2 10 0 0,0
19.06.2018 11:00:00 19,9 15,5 - - 15 8 - - WSW 1024,1 10 6 0,0
19.06.2018 10:00:00 18,5 15,2 18,4 15,7 11 6 - - W 1024,4 10 0 0,0
19.06.2018 09:00:00 19,1 15,9 - - 13 7 - - WSW 1024,2 10 0 0,0
19.06.2018 08:00:00 17,4 15,0 - - 11 6 - - WSW 1023,9 10 0 0,0
19.06.2018 07:00:00 16,9 15,1 - - 11 6 - - WSW 1023,6 10 0 0,0
19.06.2018 06:00:00 16,3 15,0 - - 11 6 - - WSW 1023,4 10 0 0,0
19.06.2018 05:00:00 16,3 14,9 - - 11 6 - - WSW 1022,9 10 0 0,0
19.06.2018 04:00:00 16,2 15,0 - - 13 7 - - W 1022,6 15 0 0,0
19.06.2018 03:00:00 15,9 14,6 - - 11 6 - - W 1022,5 19 0 0,0
19.06.2018 02:00:00 16,2 14,9 - - 16 9 - - W 1022,4 11 0 0,0
19.06.2018 01:00:00 16,2 15,0 - - 13 7 - - WSW 1022,4 10 - -
19.06.2018 00:00:00 16,1 15,2 - - 18 10 - - WSW 1022,5 6 0 0,0
18.06.2018 23:00:00 16,6 15,2 - - 18 10 - - WSW 1022,7 8 0 0,0
18.06.2018 22:00:00 16,4 14,9 - - 18 10 - - WSW 1022,5 7 0 0,0
18.06.2018 21:00:00 16,8 14,9 - - 21 11 - - WSW 1022,0 8 0 0,0
18.06.2018 20:00:00 17,0 15,0 - - 18 10 - - W 1021,9 9 0 0,0
18.06.2018 19:00:00 17,0 14,7 - - 18 10 - - WSW 1021,7 9 0 0,0
18.06.2018 18:00:00 17,5 14,5 - - 26 14 - - W 1021,3 10 0 0,0
18.06.2018 17:00:00 18,4 14,0 - - 24 13 - - WSW 1021,4 10 0 0,0
18.06.2018 16:00:00 20,4 13,4 - - 22 12 - - WSW 1021,2 10 18 0,0
18.06.2018 15:00:00 21,1 12,5 - - 28 15 - - WSW 1021,3 14 54 0,0
18.06.2018 14:00:00 21,2 11,9 - - 26 14 - - SW 1020,8 10 42 0,0
18.06.2018 13:00:00 22,5 11,7 - - 18 10 - - W 1020,9 10 60 0,0
18.06.2018 12:00:00 20,4 11,3 - - 18 10 - - WNW 1021,1 10 60 0,0
18.06.2018 11:00:00 19,1 11,2 - - 22 12 - - W 1020,9 17 54 0,0
18.06.2018 10:00:00 18,0 10,7 17,9 15,7 21 11 - - WNW 1020,8 18 30 0,0
18.06.2018 09:00:00 15,0 12,2 - - 24 13 - - WNW 1020,6 10 0 0,0
18.06.2018 08:00:00 16,1 12,8 - - 16 9 - - W 1019,7 15 0 0,0
18.06.2018 07:00:00 15,1 12,8 - - 15 8 - - WSW 1019,1 13 0 0,0
18.06.2018 06:00:00 14,8 12,4 - - 13 7 - - WSW 1018,4 10 0 0,0
18.06.2018 05:00:00 14,8 12,2 - - 13 7 - - W 1018,6 14 0 0,0
18.06.2018 04:00:00 14,9 12,6 - - 16 9 - - WNW 1018,2 26 0 0,0
18.06.2018 03:00:00 15,5 13,5 - - 15 8 - - W 1017,8 19 0 0,0
18.06.2018 02:00:00 15,8 14,3 - - 15 8 - - W 1017,8 17 0 0,0
18.06.2018 01:00:00 15,4 14,7 - - 13 7 - - WSW 1017,7 11 - 0,0
18.06.2018 00:00:00 15,2 14,7 - - 11 6 - - WSW 1017,5 8 0 0,0
17.06.2018 23:00:00 15,1 14,6 - - 15 8 - - WSW 1017,7 6 0 0,0
17.06.2018 22:00:00 15,0 14,6 - - 15 8 - - WSW 1017,3 6 0 0,0
17.06.2018 21:00:00 14,9 14,6 - - 13 7 - - SW 1017,0 5 0 0,0
17.06.2018 20:00:00 14,8 14,4 - - 16 9 - - SW 1017,1 4,0 0 0,0
17.06.2018 19:00:00 14,6 14,2 - - 16 9 - - SW 1017,3 3,0 0 0,0
17.06.2018 18:00:00 14,5 13,9 - - 18 10 - - SSW 1016,9 4,5 0 0,0
17.06.2018 17:00:00 14,0 13,3 - - 18 10 - - SW 1017,5 3,0 0 0,0
17.06.2018 16:00:00 14,7 12,4 - - 24 13 - - SW 1017,5 10 0 0,0
17.06.2018 15:00:00 15,7 12,0 - - 29 16 46 25 SW 1017,6 10 0 0,0
17.06.2018 14:00:00 16,3 11,3 - - 24 13 - - SW 1017,4 10 0 0,0
17.06.2018 13:00:00 16,4 11,2 - - 24 13 - - WSW 1017,5 10 0 0,0
17.06.2018 12:00:00 16,2 10,8 - - 22 12 - - SW 1017,6 10 0 0,0
17.06.2018 11:00:00 16,7 10,2 - - 21 11 - - SW 1017,5 10 6 0,0
17.06.2018 10:00:00 16,7 10,2 18,2 15,7 21 11 - - SW 1017,5 10 12 0,0
17.06.2018 09:00:00 16,0 9,8 - - 22 12 - - WSW 1017,5 10 48 0,0
17.06.2018 08:00:00 14,8 11,1 - - 18 10 - - WSW 1017,3 15 6 0,0
17.06.2018 07:00:00 13,6 10,8 - - 13 7 - - W 1017,0 10 0 0,0
17.06.2018 06:00:00 13,0 10,7 - - 13 7 - - WSW 1016,7 10 0 0,0
17.06.2018 05:00:00 13,7 9,5 - - 15 8 - - WSW 1016,2 15 0 0,0
17.06.2018 04:00:00 13,7 9,6 - - 16 9 - - WSW 1016,2 21 0 0,0
17.06.2018 03:00:00 13,9 9,8 - - 16 9 - - WSW 1016,2 18 0 0,0
17.06.2018 02:00:00 14,0 9,6 - - 18 10 - - WSW 1016,2 18 0 0,0
17.06.2018 01:00:00 14,4 9,4 - - 15 8 - - W 1016,3 20 - 0,0
17.06.2018 00:00:00 14,5 10,0 - - 16 9 - - WSW 1016,1 19 0 0,0
16.06.2018 23:00:00 14,6 9,6 - - 15 8 - - WSW 1015,9 18 0 0,0
16.06.2018 22:00:00 15,0 7,9 - - 18 10 - - W 1015,6 10 0 0,0
16.06.2018 21:00:00 15,6 8,3 - - 24 13 - - W 1015,0 10 0 0,0
16.06.2018 20:00:00 16,8 8,4 - - 22 12 - - W 1014,8 10 0 0,0
16.06.2018 19:00:00 17,8 10,2 - - 28 15 - - W 1014,3 10 6 0,0
16.06.2018 18:00:00 18,6 11,7 - - 28 15 46 25 W 1013,7 10 24 0,0
16.06.2018 17:00:00 18,3 12,9 - - 26 14 46 25 WSW 1013,6 10 42 0,0
16.06.2018 16:00:00 17,0 12,8 - - 24 13 - - SW 1014,0 10 0 0,0
16.06.2018 15:00:00 15,1 12,7 - - 22 12 - - SW 1014,3 10 0 0,0
16.06.2018 14:00:00 15,3 12,2 - - 24 13 46 25 SW 1014,6 3,5 0 0,0
16.06.2018 13:00:00 14,0 12,6 - - 16 9 - - SW 1015,0 10 0 0,0
16.06.2018 12:00:00 15,9 11,6 - - 21 11 - - SW 1015,1 10 0 0,0
16.06.2018 11:00:00 15,7 10,3 - - 22 12 - - SW 1015,2 10 0 0,0
16.06.2018 10:00:00 15,7 11,4 18,7 15,7 21 11 - - SW 1015,3 10 0 0,0
16.06.2018 09:00:00 15,4 11,2 - - 21 11 - - WSW 1015,2 10 12 0,0
16.06.2018 08:00:00 16,0 11,9 - - 16 9 - - SW 1015,2 10 24 0,0
16.06.2018 07:00:00 14,1 11,2 - - 9 5 - - SW 1015,1 10 0 0,0
16.06.2018 06:00:00 12,3 10,6 - - 4 2 - - SW 1015,3 13 0 0,0
16.06.2018 05:00:00 12,1 10,1 - - 2 1 - - WSW 1015,1 14 0 0,0
16.06.2018 04:00:00 12,5 10,7 - - 8 4 - - WSW 1015,5 17 0 0,0
16.06.2018 03:00:00 12,5 10,6 - - 5 3 - - W 1015,8 20 0 0,0
16.06.2018 02:00:00 12,7 10,7 - - 8 4 - - W 1016,1 18 0 0,0
16.06.2018 01:00:00 13,1 10,8 - - 8 4 - - W 1016,2 18 - 0,0
16.06.2018 00:00:00 14,0 11,0 - - 11 6 - - WSW 1016,3 17 0 0,0
15.06.2018 23:00:00 13,8 10,8 - - 11 6 - - WSW 1016,5 10 0 0,0
15.06.2018 22:00:00 14,2 10,6 - - 9 5 - - WSW 1016,8 10 0 0,0
15.06.2018 21:00:00 14,3 9,9 - - 9 5 - - W 1016,6 10 24 0,0
15.06.2018 20:00:00 16,9 11,3 - - 13 7 - - WSW 1016,8 10 6 0,0
15.06.2018 19:00:00 17,6 10,6 - - 18 10 - - W 1016,8 10 18 0,0
15.06.2018 18:00:00 18,3 10,5 - - 24 13 - - W 1016,9 10 0 0,0
15.06.2018 17:00:00 18,0 9,8 - - 21 11 - - W 1017,1 10 30 0,0
15.06.2018 16:00:00 20,2 11,0 - - 22 12 - - WSW 1017,2 10 24 0,0
15.06.2018 15:00:00 20,1 10,6 - - 21 11 - - WSW 1017,3 10 24 0,0
15.06.2018 14:00:00 19,5 8,7 - - 9 5 - - WSW 1017,2 10 6 0,0
15.06.2018 13:00:00 18,6 9,9 - - 9 5 - - SW 1017,5 10 24 0,0
15.06.2018 12:00:00 18,7 8,8 - - 11 6 - - WSW 1017,4 10 42 0,0
15.06.2018 11:00:00 18,9 9,2 - - 11 6 - - W 1017,5 10 54 0,0
15.06.2018 10:00:00 17,3 10,0 18,7 15,7 8 4 - - N 1017,2 10 60 0,0
15.06.2018 09:00:00 15,9 11,1 - - 9 5 - - NW 1017,8 10 60 0,0
15.06.2018 08:00:00 13,5 10,4 - - 13 7 - - NW 1017,9 10 60 0,0
15.06.2018 07:00:00 10,6 10,1 - - 5 3 - - WNW 1017,5 10 48 0,0
15.06.2018 06:00:00 8,2 7,6 - - 5 3 - - W 1017,2 10 0 0,0
15.06.2018 05:00:00 7,5 6,8 - - 4 2 - - W 1017,2 10 0 0,0
15.06.2018 04:00:00 8,0 6,9 - - 8 4 - - WNW 1016,9 13 0 0,0
15.06.2018 03:00:00 8,3 6,4 - - 2 1 - - W 1017,0 17 0 0,0
15.06.2018 02:00:00 9,6 7,8 - - 4 2 - - W 1016,9 16 0 0,0
15.06.2018 01:00:00 10,9 8,4 - - 5 3 - - NNW 1016,9 10 - 0,0
15.06.2018 00:00:00 11,4 8,2 - - 11 6 - - NW 1016,9 10 0 0,0
14.06.2018 23:00:00 12,9 8,2 - - 11 6 - - WNW 1017,0 10 0 0,0
14.06.2018 22:00:00 14,3 8,1 - - 11 6 - - WNW 1016,4 10 6 0,0
14.06.2018 21:00:00 16,5 8,3 - - 16 9 - - NW 1015,7 10 60 0,0
14.06.2018 20:00:00 18,5 9,2 - - 22 12 - - NNW 1015,1 10 60 0,0
14.06.2018 19:00:00 20,4 9,7 - - 18 10 - - WNW 1014,2 10 60 0,0
14.06.2018 18:00:00 21,4 9,1 - - 22 12 - - NW 1013,7 10 60 0,0
14.06.2018 17:00:00 21,8 10,1 - - 21 11 - - NW 1013,4 10 60 0,0
14.06.2018 16:00:00 22,2 10,2 - - 24 13 - - WNW 1013,0 10 60 0,0
14.06.2018 15:00:00 22,0 11,2 - - 21 11 - - WNW 1012,7 10 48 0,0
14.06.2018 14:00:00 21,8 11,3 - - 22 12 - - WNW 1012,1 10 30 0,0
14.06.2018 13:00:00 21,9 11,4 - - 24 13 46 25 WNW 1011,8 10 54 0,0
14.06.2018 12:00:00 19,0 14,7 - - 28 15 - - W 1011,5 10 6 0,0
14.06.2018 11:00:00 16,8 16,3 - - 21 11 48 26 WSW 1010,9 9 0 0,0
14.06.2018 10:00:00 15,0 14,7 18,7 15,5 29 16 52 28 WSW 1010,8 4,0 0 0,2
14.06.2018 09:00:00 14,5 13,9 - - 28 15 46 25 SW 1010,8 4,0 0 0,0
14.06.2018 08:00:00 14,3 13,6 - - 26 14 48 26 SW 1011,1 3,5 0 0,2
14.06.2018 07:00:00 14,4 12,5 - - 28 15 46 25 SW 1011,3 8 0 0,0
14.06.2018 06:00:00 14,0 12,6 - - 22 12 - - SSW 1011,7 9 0 0,0
14.06.2018 05:00:00 14,4 12,0 - - 26 14 - - SW 1012,2 16 0 0,0
14.06.2018 04:00:00 14,4 12,0 - - 26 14 - - SW 1012,7 16 0 0,0
14.06.2018 03:00:00 14,3 12,3 - - 22 12 - - SW 1013,3 12 0 0,0
14.06.2018 02:00:00 14,5 12,3 - - 18 10 - - SW 1013,9 11 0 0,0
14.06.2018 01:00:00 14,6 12,5 - - 15 8 - - SW 1014,9 11 - 0,0
14.06.2018 00:00:00 14,8 12,6 - - 18 10 - - SW 1015,6 9 0 0,0
13.06.2018 23:00:00 14,8 12,1 - - 15 8 - - SSW 1015,9 9 0 0,0
13.06.2018 22:00:00 15,0 12,9 - - 13 7 - - SSW 1016,3 7 0 0,0
13.06.2018 21:00:00 14,9 12,8 - - 11 6 - - SSW 1016,5 6 0 0,0
13.06.2018 20:00:00 15,3 12,6 - - 13 7 - - SW 1016,9 7 0 0,0
13.06.2018 19:00:00 16,6 12,9 - - 13 7 - - SW 1017,0 9 0 0,0
13.06.2018 18:00:00 17,4 13,1 - - 16 9 - - S 1017,2 9 0 0,0
13.06.2018 17:00:00 17,6 12,7 - - 18 10 - - S 1017,7 9 0 0,0
13.06.2018 16:00:00 17,8 10,9 - - 18 10 - - SSW 1018,3 10 30 0,0
13.06.2018 15:00:00 19,3 11,1 - - 21 11 - - S 1018,5 10 54 0,0

tt = Température de l'air
td = dewpoint
tt -20cm = Température de l'air -20cm
tt -100cm = Température de l'air -100cm
ff = Vitesse du vent
fx = gusts
dd = Direction du vent
ppp = reduced air pressure
vv = visibility
sd = Ensoleillement
rr = Quantités de précipitations

stations d'obs. à proximité